Search flights

Cologne-Bonn Airport, Cologne-Bonn (EDDK)

Airport Weather & NOTAM's

METAR for:EDDK (Koln-Bonn Arpt, NT, DE)
Text:EDDK 241750Z AUTO 29009KT 9999 FEW022 07/04 Q1007 TEMPO SHRA BKN020CB
Conditions at:1750 UTC 24 Apr 2024
Temperature: 7.0°C ( 45°F)
Dewpoint: 4.0°C ( 39°F) [RH = 81%]
Pressure (altimeter):29.73 inches Hg (1007.0 mb)
Winds:from the WNW (290 degrees) at 10 MPH (9 knots; 4.6 m/s)
Visibility:6 or more sm (10+ km)
Ceiling:at least 12,000 feet AGL
Clouds:few clouds at 2200 feet AGL
TAF for:EDDK (Koln-Bonn Arpt, NT, DE) issued at 1700 UTC 24 Apr 2024
Text:TAF EDDK 241700Z 2418/2524 29009KT 9999 BKN020
Forecast period:1800 UTC 24 April 2024 to 1500 UTC 25 April 2024
Forecast type:FROM: standard forecast or significant change
Winds:from the WNW (290 degrees) at 10 MPH (9 knots; 4.6 m/s)
Visibility:6 or more sm (10+ km)
Ceiling:2000 feet AGL
Clouds:broken clouds at 2000 feet AGL
Text:PROB30
Forecast period:1800 to 2100 UTC 24 April 2024
Forecast type:TEMPORARY: The following changes expected for less than half the time period
Ceiling:1000 feet AGL
Clouds:broken clouds at 1000 feet AGL
Weather:SHRA (rain showers)
Text:TEMPO 2418/2421 SHRA BKN010TCU
Forecast period:0000 to 0300 UTC 25 April 2024
Forecast type:TEMPORARY: The following changes expected for less than half the time period
Ceiling:1000 feet AGL
Clouds:broken clouds at 1000 feet AGL
Weather:SHRA (rain showers)
Text:PROB30
Forecast period:0600 to 1000 UTC 25 April 2024
Forecast type:TEMPORARY: The following changes expected for less than half the time period
Ceiling:1000 feet AGL
Clouds:broken clouds at 1000 feet AGL
Text:TEMPO 2500/2503 SHRA BKN010TCU
Forecast period:1000 to 1600 UTC 25 April 2024
Forecast type:TEMPORARY: The following changes expected for less than half the time period
Winds:from the WNW (290 degrees) at 16 MPH (14 knots; 7.2 m/s)
Visibility:1.86 sm (2.99 km)
Ceiling:2000 feet AGL
Clouds:broken clouds at 2000 feet AGL
Weather:SHRA (rain showers)
Text:TEMPO 2506/2510 BKN010
Forecast period:1500 UTC 25 April 2024 to 0000 UTC 26 April 2024
Forecast type:BECOMING: Conditions expected to become as follows by 1800 UTC 25 April 2024
Winds:from the S (190 degrees) at 7 MPH (6 knots; 3.1 m/s)
Visibility:6 or more sm (10+ km)
Ceiling:2000 feet AGL
Clouds:broken clouds at 2000 feet AGL

Live Departures & Arrivals

There are currently no arrivals or departures for this airport.

Departures History (last 12 months)

Flight No. Dest. Aircraft Date
FAVFAG159 LGAV FenixA320... 2024-04-24 05:21:47
FAV380 LEPA FenixA320... 2024-04-22 18:12:27
FAV123 ESNX FenixA320... 2024-04-18 18:25:56
SWISS 5654 EDDH Fenix A320... 2024-04-03 14:09:50
FAV316 GCLP Airbus A33... 2024-03-20 15:45:35
FAVFAC101 ELLX A30F 2024-03-15 10:53:00
FAV4 EDDB A320 2024-03-14 21:45:00
FAV420 EGPD Fenix A320... 2024-03-07 14:21:28
FAV4 EDDB Fenix A320... 2024-03-07 14:27:28
FAV123 ESNX Fenix A320... 2024-03-06 07:35:38
LH5467 EDDF Airbus A31... 2024-02-25 19:16:24
LH 52324 EDDH Airbus A31... 2024-02-24 22:40:25
FAV218 LICJ B738 2024-02-19 16:32:00
FAVFAV EGPD FenixA320_... 2024-02-18 10:28:03
FAV314 LFSB FenixA320_... 2024-02-18 13:59:34
FAVFAVTRAINE EDDC PMDG 737-8... 2024-02-17 20:22:22
FAV999 EDDC PMDG 737-8... 2024-02-17 20:23:18
FAVTOG3 EDDF FWB nx Fly... 2024-02-16 19:21:38
FAV6 EDDM FenixA320 2024-02-15 16:36:27
FAV314 LFSB Airbus A32... 2024-02-13 05:08:46
FAVFAC101 ELLX B738 2024-02-04 17:35:00
FAV614 HECA FWB nx Fly... 2024-01-15 08:25:01
FAV380 LEPA Airbus A33... 2024-01-11 13:53:36
FAV316 GCLP FenixA320_... 2024-01-11 16:39:25
FAV227 EFHK FWB nx Fly... 2024-01-06 18:48:41
FAV4 EDDB FenixA320_... 2024-01-05 13:15:11
FAV2 EDDC FWB nx Fly... 2024-01-04 09:10:38
FAVTOG3 EDDF FenixA320_... 2023-12-31 16:03:43
FAVFAG3815 LGAV FenixA320_... 2023-12-29 13:33:49
FAVFAC1 ELLX A300 Freig... 2023-12-29 22:34:12
FAV000 EDDH Airbus A33... 2023-12-29 21:20:06
FAVFAC1 ELLX FenixA320_... 2023-12-26 20:10:23
FAV74 EGLL B738 2023-12-27 21:18:00
FAVTOG3 EDDF FenixA320_... 2023-12-23 10:36:12
FAV68 EDDM FenixA320_... 2023-12-21 09:07:21
FAV468 LIRF FenixA320_... 2023-12-19 09:58:01
FAV45 EDDS A319 2023-12-15 22:20:00
FAV3204 EDDN B738 2023-12-15 11:00:00
FAV222 LOWI B738 2023-12-08 09:47:00
FAC1 ELLX FenixA320_... 2023-11-07 17:43:13
FAV550 LKPR A319 2023-11-05 20:30:00
FAV68 EDDM A20N 2023-11-01 21:14:00
FAV75 EGLL A320 2023-10-29 11:47:00
FAV68 EDDM A320 2023-10-28 11:03:00
FAVFAVFAVEW1 EDDS A319 2023-10-27 18:05:00
FAV140 ESNX FenixA320_... 2023-10-24 15:57:36
FAC1 ELLX FenixA320_... 2023-10-20 10:50:24
LH4343 EDDH Airbus A31... 2023-10-01 15:45:11
LH 4712 EDDH Airbus A32... 2023-09-24 15:57:12
FAVFAG3815 LGAV FenixA320_... 2023-09-13 07:30:36
FAVFAG3815 LGAV Airbus A32... 2023-09-11 17:27:44
LH4711 EDDS Airbus A31... 2023-08-30 10:54:40
FAV000 EDDH Airbus A33... 2023-08-26 10:01:19
FAV000 EDDM Airbus A33... 2023-08-16 21:05:52
FAV75 EGLL FenixA320_... 2023-08-15 17:00:28
FAV666 EDHK Airbus A32... 2023-08-12 09:38:59
FAV68 EDDM Airbus A32... 2023-08-11 13:59:52
FAVKJK881 EDDM A320 2023-08-07 18:31:00
FAV68 EDDM FenixA320_... 2023-08-06 13:15:42
FAV468 LIRF FWB nx Fly... 2023-08-06 07:24:35
FAV468 LIRF FWB nx Fly... 2023-08-03 09:37:01
FAV68 EDDM FenixA320_... 2023-08-02 15:13:10
FAV68 EDDM FWB Fly Af... 2023-07-30 11:32:55
AER001 EDDM Airbus A32... 2023-07-30 17:57:30
FAV57 EDDC PMDG 737-7... 2023-07-27 16:26:31
FAV41 ESSA Airbus A32... 2023-07-27 14:23:36
FAV76 LEBL Airbus A32... 2023-07-24 08:56:08
FAV687 ESSA FenixA320_... 2023-07-21 22:01:13
FAV68 EDDM Airbus A32... 2023-07-21 18:28:41
FAV68 EDDM FenixA320_... 2023-07-19 18:54:57
FAV75 EGLL Airbus A32... 2023-07-18 18:14:56
FAV75 EGLL Airbus A32... 2023-07-16 18:36:02
FAV68 EDDM FenixA320_... 2023-07-15 20:41:06
FAV68 EDDM Airbus A32... 2023-07-15 17:49:10
FAV68 EDDM Airbus A32... 2023-07-14 18:55:24
FAV68 EDDM FenixA320_... 2023-07-02 08:10:15
FAV41 ESSA FenixA320_... 2023-07-01 11:40:54
FAV41 ESSA FenixA320_... 2023-06-15 10:22:59
FAV123 EDDH FenixA320_... 2023-06-14 19:35:43
FAV3534 LFML Airbus A32... 2023-06-11 20:24:12
FAV66 EDDM PMDG 737-7... 2023-05-20 08:19:11

Arrivals History (last 12 months)

Flight No. Origin Aircraft Date
FAV379 LEPA FenixA320... 2024-04-23 11:07:47
FAV121 ESNX FenixA320... 2024-04-22 17:49:40
FAV393 EIDW A320 FENIX 2024-04-18 21:45:00
FAV3 EDDB Fenix A320... 2024-04-11 17:53:28
ESY 4324 EDDW Fenix A320... 2024-04-02 10:15:24
FAV379 LEPA Airbus A33... 2024-03-19 23:20:58
FAV619 HESH B738 2024-03-14 19:40:00
LH5672 EDDH Airbus A31... 2024-02-25 11:28:22
LH 4356 EDDW Airbus A31... 2024-02-22 22:37:24
FAVTOG2 EDDH FWB nx Fly... 2024-02-16 12:44:00
FAVFAR1 ELLX AT46 2024-02-16 07:36:00
FAV1 EDDC B738 2024-02-04 09:08:00
FAC102 ELLX PMDG 737-8... 2024-01-17 12:51:12
FAV1 EDDC FWB nx Fly... 2024-01-04 17:35:55
FAV001 EDDH Airbus A33... 2024-01-01 19:28:54
FAVTOG2 EDDH FenixA320_... 2023-12-29 16:41:08
FAV749 LOWI Airbus A33... 2023-12-28 17:50:16
FAVTOG2 EDDH FenixA320_... 2023-12-23 10:11:41
FAV749 LOWI FenixA320_... 2023-12-18 17:51:59
FAV3205 EDDN B738 2023-12-16 23:08:00
FAV67 EDDM FenixA320_... 2023-12-14 20:41:45
FAV3866 LKPR B738 2023-12-13 01:32:00
FAV67 EDDM FenixA320_... 2023-12-11 08:24:41
FAV67 EDDM A320 2023-12-04 15:20:00
FAV67 EDDM A320 2023-11-02 16:27:00
FAC2 ELLX FenixA320_... 2023-10-21 18:54:58
LH4765 EDDW Airbus A31... 2023-09-30 17:53:36
FAV67 EDDM Airbus A32... 2023-09-23 20:15:10
FAV749 LOWI Airbus A33... 2023-08-31 08:43:51
LH4711 EDDW Airbus A31... 2023-08-29 18:23:17
FAV78 LOWW FenixA320_... 2023-08-26 09:50:50
FAV000 EDDH Airbus A33... 2023-08-17 17:51:54
FAV667 EDHK Airbus A32... 2023-08-13 08:48:58
FAV67 EDDM FenixA320_... 2023-08-11 23:07:44
FAV67 EDDM Airbus A32... 2023-08-11 19:59:53
FAV2512 EDDP PMDG 737-8... 2023-08-02 22:16:57
FAV67 EDDM Airbus A32... 2023-07-31 20:07:47
FAV104 HEGN FenixA320_... 2023-07-29 14:46:44
FAV77 LEBL Airbus A32... 2023-07-24 20:31:22
FAV67 EDDM Airbus A32... 2023-07-23 20:31:39
FAV67 EDDM Airbus A32... 2023-07-20 19:39:06
FAV189 EGLL Airbus A32... 2023-07-17 20:04:08
FAR4 EDDM Just Fligh... 2023-07-17 20:36:45
FAV67 EDDM Airbus A32... 2023-07-16 17:22:25
FAV749 LOWI Boeing 787... 2023-07-01 11:00:02
FAV67 EDDM FenixA320_... 2023-06-14 19:26:36
FAV78 LOWW FenixA320_... 2023-05-12 22:03:53

Runway Information (Airport elevation: 252ft)

Runway 06 Length 8,045ft Width 138ft Elevation 252ft Surface Asphalt Heading 64
Runway 14L Length 12,507ft Width 187ft Elevation 252ft Surface Asphalt Heading 138
Runway 14R Length 6,115ft Width 178ft Elevation 252ft Surface Asphalt Heading 138
Runway 24 Length 8,045ft Width 138ft Elevation 252ft Surface Asphalt Heading 244
Runway 32L Length 6,115ft Width 178ft Elevation 252ft Surface Asphalt Heading 318
Runway 32R Length 12,507ft Width 187ft Elevation 252ft Surface Asphalt Heading 318

Airport Frequencies

Type APP/DEP Frequency 135.350 Mhz
Type ATIS Frequency 132.130 Mhz
Type Clearance Frequency 121.855 Mhz
Type Ground Frequency 121.730 Mhz
Type Tower Frequency 124.980 Mhz
Type APP/DEP Frequency 121.055 Mhz
Type APP/DEP Frequency 135.350 Mhz
Type Clearance Frequency 121.855 Mhz
Type Ground Frequency 121.730 Mhz
Type Tower Frequency 124.980 Mhz

Airport Navaids

Type VORTAC Ident COL Frequency 108800 Khz
Type VOR-DME Ident KBO Frequency 112150 Khz
Type NDB Ident LJ Frequency 365 Khz
Type NDB Ident LV Frequency 327 Khz
Type NDB Ident LW Frequency 301 Khz